EW0050 Six Fours Les Plages FR current weather conditions

sailwx.info

Wind from 326 at 1 knots gusting 2

Air temperature 10.6° C
Dewpoint 8.3° C

Last reported at 2019-Dec-07 07:59 UTC.
Time now 2019-Dec-07 08:36 UTC

Location: N 43°06' E 005°50'.
View on Google Maps.

See reports from other nearby stations

  
Tides and Currents Weather Stations Pressure Air Temp Water Temp Dewpoint Dewpoint Depression Visibility Wind Speed Wind Dir Waves Ship Positions
date/time (UTC)wind fromknots sea level pressurealtimeterstation pressurevisibilityair tempwater tempwave heightnotes
2019-Dec-07 07:59 326 1 gusting 2 10.6
2019-Dec-07 07:29 330 10.0
2019-Dec-07 06:59 327 0 gusting 2 10.0
2019-Dec-07 06:29 309 10.6
2019-Dec-07 05:59 325 1 gusting 2 10.0
2019-Dec-07 05:29 317 1 gusting 4 10.0
2019-Dec-07 04:59 333 8.9
2019-Dec-07 04:29 355 8.9
2019-Dec-07 03:59 328 0 gusting 1 8.9
2019-Dec-07 03:29 318 1 gusting 6 7.8
2019-Dec-07 02:59 200 0 gusting 1 7.2
2019-Dec-07 02:29 200 0 gusting 1 7.2
2019-Dec-07 01:59 246 0 gusting 1 6.1
2019-Dec-07 01:29 246 6.1
2019-Dec-07 00:59 246 5.6
2019-Dec-07 00:29 246 6.1
2019-Dec-06 23:59 246 6.7
2019-Dec-06 23:29 246 6.7
2019-Dec-06 22:59 252 7.2
2019-Dec-06 22:29 252 7.2
2019-Dec-06 21:59 251 7.2
2019-Dec-06 21:29 252 7.8
2019-Dec-06 20:59 252 8.3
2019-Dec-06 20:29 252 8.3
2019-Dec-06 19:59 252 0 gusting 1 8.9
2019-Dec-06 19:29 251 9.4
2019-Dec-06 18:59 251 10.0
2019-Dec-06 18:29 251 10.6
2019-Dec-06 17:59 250 11.1
2019-Dec-06 17:29 250 11.7
2019-Dec-06 16:59 250 12.2
2019-Dec-06 16:29 250 0 gusting 1 12.8
2019-Dec-06 15:59 250 14.4
2019-Dec-06 15:29 250 0 gusting 2 15.0
2019-Dec-06 14:59 261 0 gusting 2 15.6
2019-Dec-06 14:29 265 0 gusting 1 15.0
2019-Dec-06 13:59 246 1 gusting 3 15.0
2019-Dec-06 13:29 126 15.0
2019-Dec-06 12:59 124 15.0
2019-Dec-06 12:29 252 15.0
2019-Dec-06 11:59 270 0 gusting 3 15.0
2019-Dec-06 11:29 313 1 gusting 3 15.0
2019-Dec-06 10:59 132 14.4
2019-Dec-06 10:29 076 0 gusting 1 14.4
2019-Dec-06 09:59 143 0 gusting 3 13.9
2019-Dec-06 09:29 128 1 gusting 4 13.3
2019-Dec-06 08:59 100 2 gusting 5 13.3
2019-Dec-06 08:29 127 0 gusting 2 12.8
2019-Dec-06 07:59 092 0 gusting 2 11.7
2019-Dec-06 07:29 088 0 gusting 2 11.1
2019-Dec-06 06:59 065 0 gusting 1 10.6
2019-Dec-06 06:29 078 0 gusting 1 11.1
2019-Dec-06 05:59 078 11.7
2019-Dec-06 05:29 068 0 gusting 2 12.2
2019-Dec-06 04:59 086 1 gusting 4 11.7
2019-Dec-06 04:29 070 1 gusting 2 11.7
2019-Dec-06 03:59 078 0 gusting 2 12.2
2019-Dec-06 03:29 067 0 gusting 1 12.8
2019-Dec-06 02:59 093 0 gusting 2 13.3
2019-Dec-06 02:29 074 0 gusting 2 13.3
2019-Dec-06 01:59 082 2 gusting 5 13.9
2019-Dec-06 01:29 065 3 gusting 6 13.9
2019-Dec-06 00:59 079 1 gusting 4 13.9
2019-Dec-06 00:29 076 0 gusting 3 13.3
2019-Dec-05 23:59 077 0 gusting 5 13.3
2019-Dec-05 23:29 098 13.9
2019-Dec-05 22:59 313 0 gusting 4 13.9
2019-Dec-05 22:29 126 0 gusting 6 13.9
2019-Dec-05 21:59 086 1 gusting 10 14.4
2019-Dec-05 21:29 078 3 gusting 7 13.9
2019-Dec-05 20:59 092 2 gusting 11 14.4
2019-Dec-05 20:29 068 3 gusting 6 14.4
2019-Dec-05 19:59 084 1 gusting 9 14.4
2019-Dec-05 19:29 076 2 gusting 6 14.4
2019-Dec-05 18:59 075 5 gusting 10 14.4
2019-Dec-05 18:29 097 3 gusting 10 14.4
2019-Dec-05 17:59 121 0 gusting 5 13.9
2019-Dec-05 08:59 091 3 gusting 13 14.4
2019-Dec-05 08:29 076 4 gusting 9 13.9